Location: Academy at Carrie F Thomas
(32.8490°N, 97.2053°W)
Time: 16:56:18
(UTC+00:00)

Meteor 1-25 Rocket - Pass Details

Date: 04 July 2022
Orbit: 835 x 893 km, 81.2° (Epoch: 18 August)

Event Time Altitude Azimuth Distance (km) Brightness Sun altitude
Exits shadow 10:21:32 15° 251° (WSW) 2,246 5.8 -12.1°
Maximum altitude 10:24:30 21° 287° (WNW) 1,909 5.7 -11.6°
Drops below altitude 10° 10:28:46 10° 335° (NNW) 2,562 6.9 -10.9°
Sets 10:31:54 0° 351° (N) 3,501 7.8 -10.4°
